This is the latest recevied weather packets stored in our database for station/object HP3ICC-24. If no packets are shown the sender has not sent any weather packets the latest 10 day(s).
| Time | Temp. | Humidity | Pressure | Rain* | Wind** | Luminosity | Snow |
|---|---|---|---|---|---|---|---|
| 1777772479 | 16.67° C | 82% | 1014 hPa | 0 mm | - | - | - |
| 1777771339 | 17.22° C | 82% | 1013 hPa | 0 mm | - | - | - |
| 1777771278 | 17.22° C | 82% | 1013 hPa | 0 mm | - | - | - |
| 1777770138 | 17.22° C | 82% | 1014 hPa | 0 mm | - | - | - |
| 1777770078 | 17.22° C | 82% | 1014 hPa | 0 mm | - | - | - |
| 1777768938 | 17.22° C | 82% | 1014 hPa | 0 mm | - | - | - |
| 1777768877 | 17.22° C | 82% | 1014 hPa | 0 mm | - | - | - |
| 1777767738 | 17.22° C | 82% | 1012 hPa | 0 mm | - | - | - |
| 1777767677 | 17.22° C | 82% | 1012 hPa | 0 mm | - | - | - |
| 1777766537 | 17.78° C | 82% | 1013 hPa | 0.25 mm | - | - | - |
| 1777766476 | 17.78° C | 82% | 1013 hPa | 0.25 mm | - | - | - |
| 1777765336 | 17.78° C | 82% | 1013 hPa | 0.76 mm | - | - | - |
| 1777765276 | 17.78° C | 82% | 1013 hPa | 0.76 mm | - | - | - |
| 1777764136 | 17.78° C | 82% | 1011 hPa | 2.03 mm | - | - | - |
| 1777764075 | 17.78° C | 82% | 1011 hPa | 2.03 mm | - | - | - |
| 1777762935 | 17.78° C | 82% | 1012 hPa | 2.79 mm | - | - | - |
| 1777762875 | 17.78° C | 82% | 1012 hPa | 2.79 mm | - | - | - |
| 1777761735 | 17.78° C | 82% | 1012 hPa | 1.27 mm | - | - | - |
| 1777761675 | 17.78° C | 82% | 1012 hPa | 1.27 mm | - | - | - |
| 1777760534 | 17.78° C | 82% | 1009 hPa | 0 mm | - | - | - |
| 1777760474 | 17.78° C | 82% | 1009 hPa | 0 mm | - | - | - |
| 1777759334 | 17.78° C | 82% | 1011 hPa | 0 mm | - | - | - |
| 1777759273 | 17.78° C | 82% | 1011 hPa | 0 mm | - | - | - |
| 1777758133 | 17.78° C | 82% | 1011 hPa | 0 mm | - | - | - |
| 1777758073 | 17.78° C | 82% | 1011 hPa | 0 mm | - | - | - |
* Rain latest hour (hover to see other rain measurements)
** Current wind speed in m/s (hover to see current wind gust speed)